This demonstration page uses our WeatherBlox Daily Observations layout. Learn more.

Left ArrowRight Arrow

Hourly Observations for July 20, 2020

Temp ( °F °C ) Dew Point ( °F °C ) Humidity (%) Winds ( mph kmh ) Pressure ( in mb ) Visibility ( mi km ) Precip ( " mm )
12:54 am 00:54 Partly Cloudy 78 25.6 65 18.3 64 64 SE 7 11 29.96 1015 10 16.0934 0 0
1:54 am 01:54 Mostly Clear 76 24.4 65 18.3 69 69 SSE 10 17 29.93 1014 10 16.0934 0 0
2:54 am 02:54 Clear 74 23.3 65 18.3 74 74 SE 5 7 29.93 1013 10 16.0934 0 0
3:38 am 03:38 Cloudy with Thunderstorms 76 24.4 63 17.2 64 64 ESE 10 17 29.9 1012 10 16.0934 0 0
3:54 am 03:54 Cloudy with Light Rain 73 22.8 64 17.8 74 74 ESE 9 15 29.91 1013 8 12.87472 0.04 1.016
4:06 am 04:06 Mostly Cloudy with Nearby Thunderstorms 74 23.3 64 17.8 71 71 SE 13 20 29.9 1013 10 16.0934 0.001 0.001
4:24 am 04:24 Mostly Cloudy with Heavy Thunderstorms 71 21.7 66 18.9 84 84 S 17 28 29.95 1014 4 6.43736 0.001 0.001
4:51 am 04:51 Cloudy with Nearby Thunderstorms 70 21 66 19 88 88 NW 5 7 29.98 1015 10 16.0934 0.18 4.572
4:54 am 04:54 Cloudy with Nearby Thunderstorms 70 21.1 66 18.9 87 87 NW 6 9 29.98 1015 10 16.0934 0.18 4.572
5:32 am 05:32 Cloudy with Heavy Rain 69 20.6 66 18.9 90 90 N 9 15 29.97 1015 3 4.82802 0.13 3.302
5:50 am 05:50 Cloudy with Nearby Thunderstorms 70 21 66 19 88 88 NNE 8 13 29.98 1015 6 9.65604 0.18 4.572
5:54 am 05:54 Cloudy with Nearby Thunderstorms 69 20.6 66 18.9 90 90 NE 10 17 29.98 1015 7 11.26538 0.18 4.572
6:02 am 06:02 Cloudy with Nearby Thunderstorms 69 20.6 66 18.9 90 90 NNE 9 15 29.97 1015 6 9.65604 0.02 0.508
6:09 am 06:09 Cloudy with Heavy Rain 68 20 66 18.9 93 93 NNE 13 20 29.98 1015 5 8.0467 0.05 1.27
6:37 am 06:37 Cloudy with Rain 67 19.4 64 17.8 91 91 ENE 15 24 29.94 1014 7 11.26538 0.17 4.318
6:54 am 06:54 Mostly Cloudy with Light Rain 67 19.4 64 17.8 91 91 ENE 16 26 29.92 1013 8 12.87472 0.21 5.334
7:03 am 07:03 Mostly Cloudy with Light Rain 67 19.4 64 17.8 91 91 NE 13 20 29.94 1014 9 14.48406 0.01 0.254
7:08 am 07:08 Cloudy with Light Rain 67 19.4 65 18.3 93 93 ENE 12 19 29.95 1014 9 14.48406 0.01 0.254
7:54 am 07:54 Cloudy 68 20 64 17.8 87 87 E 12 19 29.98 1015 9 14.48406 0.02 0.508
8:54 am 08:54 Cloudy 68 20 65 18.3 90 90 NE 9 15 29.98 1015 9 14.48406 0 0
9:51 am 09:51 Cloudy 72 22 66 19 83 83 ESE 9 15 29.96 1015 10 16.0934 0 0
9:54 am 09:54 Cloudy 71 21.7 67 19.4 87 87 E 13 20 29.96 1015 10 16.0934 0 0
10:50 am 10:50 Cloudy 73 23 68 20 83 83 ESE 13 20 29.95 1014 10 16.0934 0 0
10:54 am 10:54 Cloudy 74 23.3 67 19.4 79 79 ESE 12 19 29.97 1015 9 14.48406 0 0
11:09 am 11:09 Cloudy 72 22.2 66 18.9 82 82 E 13 20 29.96 1014 9 14.48406 0 0
11:39 am 11:39 Cloudy 75 23.9 67 19.4 76 76 ESE 10 17 29.96 1015 10 16.0934 0 0
11:54 am 11:54 Cloudy 76 24.4 67 19.4 74 74 SE 10 17 29.97 1015 10 16.0934 0 0
12:54 pm 12:54 Cloudy 76 24.4 66 18.9 72 72 Calm 29.97 1015 10 16.0934 0 0
1:54 pm 13:54 Mostly Cloudy 76 24.4 67 19.4 74 74 Calm 29.95 1014 10 16.0934 0 0
2:54 pm 14:54 Cloudy 80 26.7 67 19.4 64 64 S 5 7 29.95 1014 10 16.0934 0 0
3:07 pm 15:07 Cloudy 79 26.1 67 19.4 67 67 S 5 7 29.92 1013 10 16.0934 0 0
3:28 pm 15:28 Cloudy 81 27.2 67 19.4 62 62 Calm 29.92 1013 10 16.0934 0 0
3:54 pm 15:54 Mostly Cloudy 81 27.2 67 19.4 62 62 VRB 3 6 29.94 1014 10 16.0934 0 0
4:03 pm 16:03 Mostly Cloudy 81 27.2 66 18.9 61 61 Calm 29.92 1013 10 16.0934 0 0
4:54 pm 16:54 Mostly Cloudy 83 28.3 67 19.4 59 59 E 7 11 29.93 1014 10 16.0934 0 0
5:54 pm 17:54 Mostly Sunny 80 26.7 68 20 67 67 ENE 8 13 29.91 1013 10 16.0934 0 0
6:54 pm 18:54 Mostly Cloudy 79 26.1 67 19.4 67 67 E 9 15 29.91 1013 10 16.0934 0 0
7:54 pm 19:54 Partly Cloudy 78 25.6 67 19.4 69 69 E 9 15 29.93 1013 10 16.0934 0 0
8:54 pm 20:54 Clear 76 24.4 67 19.4 74 74 SE 10 17 29.94 1014 10 16.0934 0 0
9:54 pm 21:54 Mostly Clear 75 23.9 67 19.4 76 76 ESE 6 9 29.94 1014 10 16.0934 0 0
10:54 pm 22:54 Mostly Clear 75 23.9 67 19.4 76 76 ESE 5 7 29.93 1014 10 16.0934 0 0
11:54 pm 23:54 Mostly Cloudy 75 23.9 67 19.4 76 76 Calm 29.95 1014 10 16.0934 0 0

Powered by AerisWeather